Regional Weather Roundup
Issued by NWS

Home | Current Version | Previous Version | Graphics & Text | Print | Product List | Glossary On
Versions: 1 2 3 4 5 6 7 8 9 10 11 12 13 14 15 16 17 18 19 20 21 22 23 24 25 26 27 28 29 30 31 32 33 34 35 36 37 38 39 40 41 42 43 44 45 46 47 48 49 50
000
ASUS45 KABQ 222210
RWRNM
NEW MEXICO REGIONAL WEATHER ROUNDUP
NATIONAL WEATHER SERVICE ALBUQUERQUE NM
300 PM MST MON JAN 22 2018

NOTE: "FAIR" MEANS FEW OR NO CLOUDS BELOW 12,000 FEET AGL WITH NO
       SIGNIFICANT WEATHER OR OBSTRUCTIONS TO VISION.

      THIS PRODUCT IS RELEASED AS TWO VERSIONS.  ONE VERSION NEAR
      THE TOP OF THE HOUR CONTAINING PRELIMINARY DATA FROM ALBUQUERQUE
      AND OTHER STATIONS.  A FINAL VERSION WITH ADDITIONAL DATA IS
      ISSUED ABOUT 10 MINUTES AFTER THE HOUR.

NMZ501-503-504-510>518-222300-
NORTHWEST PLATEAU/NORTHCENTRAL MOUNTAINS

CITY           SKY/WX    TMP DP  RH WIND       PRES   REMARKS
FARMINGTON     FAIR      36  11  35 CALM      30.20F
LOS ALAMOS     FAIR      34   5  30 SE5       30.15S WCI  30
SANTA FE       FAIR      36  14  40 W3        30.15S
TAOS           FAIR      30   8  39 W6        30.19R WCI  24
ANGEL FIRE     FAIR      25  10  54 W5        30.12R WCI  19

$$
NMZ402-403-502-505>509-222300-
WESTCENTRAL MOUNTAINS/SOUTHWEST MOUNTAINS

CITY           SKY/WX    TMP DP  RH WIND       PRES   REMARKS
GALLUP         FAIR      35   8  32 CALM      30.20F
GRANTS         FAIR      39   2  21 N12       30.20S WCI  31
SILVER CITY    FAIR      48  -1  12 SE9       30.16S

$$
NMZ407-409-411-412-222300-
SOUTHERN DESERTS

CITY           SKY/WX    TMP DP  RH WIND       PRES   REMARKS
DEMING         FAIR      50   2  14 CALM      30.17S
LAS CRUCES     FAIR      50   0  13 N5        30.17F
HOLLOMAN AFB   FAIR      49   6  17 NW13      30.19S
ALAMOGORDO     FAIR      48   5  17 N12G17    30.17S
T OR C         FAIR      47   4  17 E6        30.17F

$$
NMZ519>523-222300-
CENTRAL VALLEYS/CENTRAL HIGHLANDS

CITY           SKY/WX    TMP DP  RH WIND       PRES   REMARKS
ALBUQUERQUE    FAIR      42  10  27 N8        30.18F
DOUBLE EAGLE   MOSUNNY   41   7  24 W5        30.18F
MORIARTY ARPT  FAIR      41   9  27 NW12G20   30.16S
CLINES CORNERS FAIR      36   0  21 NW17G30   30.12R WCI  26
BELEN          FAIR      43   4  20 CALM      30.19S
SOCORRO        FAIR      44   6  21 N8G16     30.18F

$$
NMZ524>526-539-540-222300-
SOUTHCENTRAL MOUNTAINS

CITY           SKY/WX    TMP DP  RH WIND       PRES   REMARKS
RUIDOSO        NOT AVBL

$$
NMZ527>531-222300-
NORTHEAST HIGHLANDS/NORTHEAST PLAINS

CITY           SKY/WX    TMP DP  RH WIND       PRES   REMARKS
LAS VEGAS      FAIR      45 -12   9 N14       30.07R
RATON          FAIR      46 -10   9 N10       30.02R
CLAYTON        FAIR      46  -3  13 NW15      30.03R

$$
NMZ532>537-222300-
EASTCENTRAL PLAINS

CITY           SKY/WX    TMP DP  RH WIND       PRES   REMARKS
TUCUMCARI      FAIR      52  -3  10 CALM      30.06R
CANNON AFB     FAIR      51  -6   9 W9        30.10R
CLOVIS AIRPORT FAIR      50  -3  11 NW14      30.10R

$$
NMZ028-029-538-222300-
SOUTHEAST PLAINS

CITY           SKY/WX    TMP DP  RH WIND       PRES   REMARKS
ROSWELL        FAIR      56   4  12 VRB5      30.10F
ARTESIA        FAIR      54   5  14 N9        30.13R
CARLSBAD       FAIR      55   4  12 N8        30.12S
HOBBS          SUNNY     54   0  11 NW12      30.12R


$$




USA.gov is the U.S. government's official web portal to all federal, state and local government web resources and services.